Life is a run


2022 Journey
35 Runs
93.2 KM
4:58 Avg Pace
2 day Streak

2021 Journey
49 Runs
154.4 KM
5:03 Avg Pace
5 day Streak
124 Avg Heart Rate

2020 Journey
18 Runs
60.1 KM
5:57 Avg Pace
3 day Streak

2019 Journey
4 Runs
5.2 KM
5:25 Avg Pace
1 day Streak

Total Journey
106 Runs
313.0 KM
5:10 Avg Pace
5 day Streak
124 Avg Heart Rate

KMPaceBPMTimeDate
Evening Run2.44:5911min2022-08-12 21:28:41
Night Run3.05:1515min2022-08-01 22:07:01
Evening Run3.24:5615min2022-07-29 19:42:06
Night Run3.04:3213min2022-07-26 22:13:21
Evening Run4.16:2226min2022-07-24 21:00:09
Evening Run3.04:5314min2022-07-24 20:45:13
Evening Run3.04:5314min2022-07-23 21:54:09
Evening Run3.35:1617min2022-07-21 21:49:52
Night Run3.04:3213min2022-07-17 22:26:29
Night Run3.04:4014min2022-07-12 22:01:22
Night Run3.54:5717min2022-07-08 22:14:05
Evening Run1.65:208min2022-07-03 21:24:40
Evening Run1.04:374min2022-07-03 21:16:01
Evening Run1.04:094min2022-07-03 21:08:24
Night Run2.14:5310min2022-06-29 22:15:18
Evening Run3.04:5414min2022-06-25 21:46:20
Evening Run3.55:0017min2022-06-20 21:07:51
Evening Run3.04:3813min2022-06-20 20:53:45
Evening Run2.04:349min2022-06-19 20:53:31
Night Run3.04:3313min2022-06-12 22:16:02
Evening Run3.14:2613min2022-06-06 21:49:12
Night Run4.15:1621min2022-06-03 22:07:21
Evening Run3.14:5615min2022-06-03 21:52:10
Evening Run3.05:0615min2022-05-29 19:57:23
Evening Run1.54:597min2022-05-27 20:18:44
Evening Run3.24:4115min2022-05-27 19:57:38
Night Run1.65:138min2022-04-07 22:06:20
Evening Run1.54:376min2022-04-03 21:55:00
Evening Run1.54:527min2022-03-27 20:59:24
Evening Run3.05:2016min2022-03-04 21:37:37
Evening Run3.25:4818min2022-03-03 21:36:27
Evening Run3.05:1515min2022-02-28 21:14:59
Evening Run1.85:029min2022-02-27 21:53:28
Evening Run3.05:5517min2022-02-23 21:23:09
Evening Run1.55:448min2022-02-21 21:36:28